Total_Precipitation_Accumulation
0.00 0.00 0.00 0.00 0.00 0.00 0.00 0.00 0.00 0.00 0.00 0.00 0.00 0.00 0.00 0.00 0.00 0.00 0.00 0.00 0.00 0.00 0.00 0.00 0.00 0.00 0.01 0.00 0.00 0.00 0.00 0.00
0.00 0.00 0.00 0.00 0.00 0.00 0.00 0.00 0.00 0.00 0.00 0.01 0.00 0.01 0.00 0.00 0.00 0.00 0.00 0.00 0.00 0.00 0.00 0.00 0.00 0.00 0.00 0.00 0.00 0.01 0.02 0.02
0.00 0.00 0.00 0.00 0.00 0.00 0.00 0.00 0.00 0.00 0.00 0.00 0.01 0.01 0.00 0.00 0.00 0.00 0.00 0.00 0.01 0.03 0.01 0.00 0.00 0.00 0.01 0.02 0.01 0.02 0.03 0.04
0.00 0.00 0.00 0.00 0.00 0.00 0.00 0.00 0.00 0.00 0.00 0.01 0.01 0.02 0.02 0.01 0.00 0.00 0.03 0.02 0.04 0.04 0.04 0.02 0.01 0.00 0.01 0.02 0.02 0.03 0.03 0.03
0.00 0.00 0.00 0.00 0.00 0.00 0.00 0.00 0.00 0.00 0.00 0.00 0.04 0.02 0.03 0.02 0.01 0.07 0.11 0.13 0.16 0.14 0.12 0.11 0.10 0.08 0.01 0.02 0.02 0.03 0.11 0.06
0.00 0.00 0.00 0.00 0.00 0.00 0.00 0.00 0.00 0.00 0.00 0.00 0.11 0.11 0.06 0.13 0.26 0.39 0.42 0.45 0.49 0.40 0.37 0.37 0.40 0.30 0.17 0.19 0.24 0.17 0.21 0.29
0.01 0.00 0.00 0.00 0.01 0.01 0.01 0.00 0.00 0.02 0.10 0.09 0.13 0.13 0.13 0.14 0.20 0.33 0.40 0.49 0.69 0.79 0.87 0.82 0.83 0.75 0.51 0.37 0.33 0.28 0.20 0.21
0.06 0.03 0.02 0.00 0.01 0.04 0.08 0.04 0.01 0.02 0.12 0.26 0.24 0.24 0.28 0.14 0.14 0.20 0.19 0.23 0.15 0.16 0.27 0.27 0.30 0.41 0.52 0.47 0.34 0.23 0.18 0.09
0.12 0.09 0.07 0.08 0.06 0.03 0.03 0.06 0.08 0.07 0.16 0.33 0.36 0.31 0.47 0.27 0.16 0.25 0.16 0.16 0.06 0.06 0.03 0.08 0.10 0.12 0.14 0.14 0.14 0.10 0.10 0.09
0.29 0.24 0.21 0.18 0.17 0.09 0.05 0.05 0.11 0.13 0.17 0.31 0.37 0.43 0.49 0.37 0.28 0.34 0.28 0.17 0.07 0.03 0.03 0.04 0.04 0.04 0.05 0.05 0.05 0.05 0.06 0.05
0.41 0.47 0.41 0.24 0.25 0.16 0.13 0.13 0.13 0.13 0.15 0.21 0.27 0.30 0.36 0.38 0.26 0.17 0.12 0.09 0.06 0.04 0.03 0.02 0.01 0.02 0.03 0.03 0.03 0.03 0.03 0.03
0.58 0.89 0.79 0.43 0.33 0.24 0.15 0.16 0.17 0.11 0.10 0.13 0.21 0.19 0.16 0.16 0.15 0.18 0.12 0.06 0.03 0.01 0.00 0.01 0.01 0.01 0.02 0.03 0.03 0.03 0.05 0.05
0.54 0.46 0.57 0.75 0.48 0.19 0.11 0.08 0.16 0.09 0.06 0.09 0.12 0.15 0.11 0.05 0.03 0.01 0.04 0.03 0.01 0.01 0.00 0.00 0.00 0.00 0.00 0.02 0.02 0.02 0.03 0.05
1.04 0.89 0.63 0.36 0.46 0.27 0.10 0.10 0.25 0.11 0.04 0.08 0.05 0.08 0.04 0.07 0.04 0.01 0.00 0.00 0.00 0.00 0.00 0.00 0.00 0.00 0.01 0.01 0.01 0.02 0.03 0.03
0.85 0.85 1.09 1.00 0.48 0.35 0.31 0.11 0.27 0.21 0.09 0.04 0.06 0.02 0.01 0.01 0.01 0.01 0.00 0.00 0.00 0.01 0.01 0.01 0.01 0.01 0.01 0.02 0.02 0.03 0.03 0.04
0.66 0.73 0.55 0.67 0.78 0.52 0.37 0.35 0.16 0.15 0.11 0.05 0.02 0.01 0.00 0.00 0.00 0.00 0.00 0.00 0.00 0.00 0.01 0.02 0.02 0.02 0.02 0.03 0.04 0.04 0.04 0.04
0.32 0.31 0.24 0.12 0.12 0.19 0.14 0.20 0.18 0.11 0.12 0.07 0.02 0.00 0.00 0.00 0.00 0.00 0.00 0.00 0.00 0.00 0.01 0.02 0.03 0.03 0.06 0.04 0.04 0.05 0.05 0.05
0.14 0.05 0.04 0.04 0.02 0.01 0.01 0.01 0.02 0.01 0.01 0.04 0.01 0.00 0.00 0.00 0.00 0.00 0.00 0.00 0.00 0.00 0.00 0.02 0.02 0.02 0.04 0.03 0.05 0.06 0.07 0.06
0.04 0.05 0.03 0.01 0.01 0.00 0.00 0.00 0.00 0.00 0.00 0.00 0.00 0.00 0.00 0.00 0.00 0.00 0.00 0.00 0.00 0.00 0.01 0.01 0.02 0.03 0.06 0.06 0.08 0.06 0.05 0.07